[[{"header":{"parameterUnit":"m.s-1","parameterCategory":1,"la1":30.2991,"la2":30.254,"lo1":-89.0895,"lo2":-89.0444,"dy":0.0017,"dx":0.0017,"nx":28,"ny":28,"refTime":"2023-10-01T09:00:00:Z","depth":0,"parameterNumber":2,"parameterNumberName":"U-component_of_WINDS"},"data":[0,0,0,0,0,0,0,0,0,0,0,0,0,0,0,0,0,0,0,0,0,0,0,0,0,0,0,0,0,0,0,0,0,0,0,0,0,0,0,0,0,0,0,0,0,0,0,0,0,0,0,0,0,0,0,0,0,0,-6.2988,-6.2989,0,-6.3045,-6.3046,-6.3047,-6.294,-6.2937,-6.2933,-6.293,-6.299,-6.2995,-6.3,0,0,0,0,0,0,0,0,0,0,0,0,0,-6.2788,-6.2793,-6.2988,-6.2989,-6.2989,-6.3045,-6.3046,-6.3047,-6.2941,-6.2936,-6.2932,-6.2928,-6.2988,-6.2994,-6.3,0,0,0,0,0,0,0,0,0,0,0,0,0,-6.2863,-6.2794,-6.2988,-6.2943,-6.294,-6.3045,-6.3046,-6.3047,-6.2942,-6.2936,-6.2931,-6.2926,-6.2986,-6.2994,-6.3001,-6.3153,0,0,-6.3023,-6.3027,0,0,0,0,0,0,0,0,-6.2859,-6.2871,-6.2949,-6.2946,-6.2943,-6.298,-6.2998,-6.3083,-6.2943,-6.2941,-6.293,-6.2923,-6.2991,-6.2998,-6.302,-6.3156,-6.3158,-6.3024,-6.3028,-6.3032,-6.3034,0,0,0,0,0,0,0,-6.2854,-6.2868,-6.3011,-6.295,-6.2946,-6.2921,-6.2926,-6.3013,-6.2995,-6.2941,-6.2933,-6.2941,-6.2988,-6.3013,-6.3021,-6.3159,-6.3024,-6.303,-6.3035,-6.3038,-6.3425,-6.3431,0,0,0,0,0,0,-6.2854,-6.2864,-6.3009,-6.3012,-6.2887,-6.2929,-6.2934,-6.2974,-6.2994,-6.2992,-6.2946,-6.2936,-6.3003,-6.3012,-6.3023,-6.3204,-6.3032,-6.3038,-6.3043,-6.3419,-6.3426,-6.3433,0,0,0,0,0,0,-6.285,-6.2868,-6.3006,-6.2936,-6.2952,-6.2938,-6.2983,-6.2977,-6.3002,-6.2998,-6.2994,-6.2975,-6.3,-6.3012,-6.3122,-6.3204,-6.3042,-6.3049,-6.3412,-6.3421,-6.343,-6.3567,0,0,0,0,0,0,-6.2845,-6.2868,-6.2925,-6.2938,-6.2956,-6.3105,-6.2988,-6.2982,-6.3015,-6.3003,-6.3024,-6.3022,-6.2996,-6.3111,-6.3129,-6.3212,-6.3054,-6.3405,-6.3416,-6.3427,-6.3555,-6.3579,-6.36,0,0,0,0,0,-6.2838,-6.2961,-6.2928,-6.2946,-6.3027,-6.3109,-6.312,-6.3087,-6.3022,-6.308,-6.3077,-6.3022,-6.3192,-6.3124,-6.3143,-6.3229,-6.34,-6.3413,-6.3426,-6.3545,-6.3575,-6.36,0,0,0,0,0,0,-6.2957,-6.2962,-6.2925,-6.3056,-6.3083,-6.3091,-6.3163,-6.3119,-6.3166,-6.3152,-6.311,-6.3116,-6.3235,-6.3242,-6.3165,-6.3378,-6.3285,-6.3303,-6.3369,-6.3397,-6.3419,-6.3416,-6.306,0,0,0,0,0,-6.2998,-6.3064,-6.3065,-6.318,-6.3195,-6.3177,-6.3212,-6.3184,-6.3211,-6.3222,-6.3227,-6.3256,-6.3316,-6.3357,-6.3412,-6.3555,-6.3559,-6.3624,-6.3647,-6.3665,-6.3681,-6.376,-6.379,-6.3476,-6.3476,-6.3476,0,0,-6.3084,-6.3095,-6.3139,-6.3204,-6.3222,-6.3292,-6.3188,-6.3266,-6.3318,-6.3234,-6.3338,-6.3344,-6.3373,-6.3501,-6.3557,-6.3511,-6.3769,-6.3682,-6.3697,-6.3703,-6.3777,-6.3807,-6.3833,-6.3485,-6.3483,-6.3482,0,0,-6.3277,-6.3291,-6.3389,-6.341,-6.3438,-6.3426,-6.345,-6.3465,-6.3466,-6.3569,-6.3509,-6.357,-6.3674,-6.3699,-6.3724,-6.3929,-6.388,-6.3948,-6.4067,-6.4144,-6.4169,-6.419,-6.4266,-6.4293,-6.3964,-6.3964,-6.3964,0,-6.338,-6.3483,-6.3445,-6.3529,-6.356,-6.3487,-6.3588,-6.3609,-6.3655,-6.3679,-6.3625,-6.3756,-6.377,-6.3904,-6.3954,-6.3977,-6.4004,-6.3946,-6.4168,-6.4189,-6.4209,-6.428,-6.4309,-6.3972,-6.3971,-6.3971,-6.397,0,-6.361,-6.3683,-6.3759,-6.3805,-6.3845,-6.3936,-6.3913,-6.3958,-6.3928,-6.3921,-6.4029,-6.4044,-6.4102,-6.4131,-6.4102,-6.4262,-6.4233,-6.4175,-6.4081,-6.4248,-6.4314,-6.4341,-6.3984,-6.3981,-6.3979,-6.3977,0,0,-6.3879,-6.3904,-6.3933,-6.3954,-6.3981,-6.4037,-6.4126,-6.4183,-6.4223,-6.4257,-6.4332,-6.4422,-6.4369,-6.4399,-6.4372,-6.444,-6.4604,-6.4374,-6.4374,-6.4418,-6.4784,-6.4829,-6.4861,-6.4571,-6.4576,-6.458,-6.4782,0,-6.4072,-6.4225,-6.4195,-6.4345,-6.4413,-6.4345,-6.4423,-6.4449,-6.4446,-6.4503,-6.4499,-6.4565,-6.4489,-6.4507,-6.4571,-6.457,-6.4677,-6.4555,-6.4642,-6.4646,-6.4639,-6.4895,-6.4942,-6.5132,-6.4807,-6.4812,-6.4815,0,-6.4318,-6.4362,-6.452,-6.4538,-6.4565,-6.4635,-6.4686,-6.4741,-6.477,-6.4763,-6.4797,-6.4758,-6.4848,-6.4752,-6.4876,-6.4794,-6.4828,-6.4833,-6.484,-6.4848,-6.4742,-6.4912,-6.5191,-6.5221,-6.4855,-6.4852,-6.4849,0,-6.4501,-6.46,-6.4707,-6.4727,-6.475,-6.4802,-6.4814,-6.4837,-6.4874,-6.4918,-6.4942,-6.4996,-6.5027,-6.507,-6.5048,-6.4979,-6.5177,-6.5079,-6.5176,-6.5177,-6.5221,-6.5219,-6.5512,-6.524,-6.524,-6.5239,-6.5239,0,-6.4721,-6.4821,-6.479,-6.4857,-6.4967,-6.4931,-6.5041,-6.5045,-6.5067,-6.5134,-6.5078,-6.5142,-6.5107,-6.5169,-6.5152,-6.5259,-6.5273,-6.5271,-6.5266,-6.5277,-6.5278,-6.53,-6.5287,-6.5247,-6.5245,-6.5244,-6.5243,0,-6.4945,-6.4928,-6.5041,-6.5055,-6.506,-6.5141,-6.5153,-6.5216,-6.5208,-6.5294,-6.5312,-6.5301,-6.5371,-6.5353,-6.5429,-6.5417,-6.5553,-6.553,-6.5544,-6.5539,-6.5638,-6.563,-6.5956,-6.5999,-6.5698,-6.5701,-6.5704,0,-6.5087,-6.5162,-6.5184,-6.5225,-6.5242,-6.5308,-6.5345,-6.5313,-6.5355,-6.5394,-6.5453,-6.5518,-6.5569,-6.5685,-6.5684,-6.5743,-6.5722,-6.5833,-6.5731,-6.5741,-6.5727,-6.5723,-6.5732,-6.5854,-6.5857,-6.586,-6.5862,0,-6.5342,-6.5331,-6.5387,-6.5441,-6.5488,-6.5529,-6.5564,-6.5601,-6.5572,-6.5622,-6.5693,-6.5733,-6.5811,-6.5878,-6.5932,-6.5945,-6.5901,-6.5894,-6.592,-6.5933,-6.5939,-6.594,-6.5602,-6.5887,-6.5885,-6.5883,-6.5881,-6.588,-6.5531,-6.5595,-6.5622,-6.5686,-6.571,-6.5746,-6.5806,-6.5807,-6.5865,-6.5927,-6.5904,-6.5987,-6.6015,-6.6083,-6.6104,-6.6169,-6.6127,-6.6164,-6.6174,-6.6184,-6.6197,-6.5928,-6.6178,-6.6178,-6.6177,-6.6176,-6.6176,0,-6.5785,-6.5799,-6.5859,-6.5911,-6.5963,-6.5915,-6.5953,-6.6,-6.6073,-6.6103,-6.6155,-6.6238,-6.6303,-6.6308,-6.6369,-6.642,-6.6401,-6.6438,-6.6434,-6.6439,-6.623,-6.6202,-6.6452,-6.6452,-6.6452,-6.6452,-6.6452,-6.6452,-6.5923,-6.6031,-6.6023,-6.6142,-6.6155,-6.6235,-6.6261,-6.6295,-6.6319,-6.6414,-6.6468,-6.647,-6.6491,-6.6554,-6.6612,-6.6612,-6.6638,-6.6683,-6.6676,-6.6481,-6.6453,-6.6427,-6.6401,-6.6688,-6.6689,-6.6879,-6.6881,-6.6882]},{"header":{"parameterUnit":"m.s-1","parameterCategory":1,"la1":30.2991,"la2":30.254,"lo1":-89.0895,"lo2":-89.0444,"dy":0.0017,"dx":0.0017,"nx":28,"ny":28,"refTime":"2023-10-01T09:00:00:Z","depth":0,"parameterNumber":3,"parameterNumberName":"V-component_of_WINDS"},"data":[0,0,0,0,0,0,0,0,0,0,0,0,0,0,0,0,0,0,0,0,0,0,0,0,0,0,0,0,0,0,0,0,0,0,0,0,0,0,0,0,0,0,0,0,0,0,0,0,0,0,0,0,0,0,0,0,0,0,-2.2268,-2.2268,0,-2.2247,-2.2247,-2.2247,-2.2192,-2.2191,-2.2189,-2.2188,-2.2168,-2.2168,-2.2169,0,0,0,0,0,0,0,0,0,0,0,0,0,-2.2261,-2.2262,-2.2268,-2.2268,-2.2268,-2.2247,-2.2247,-2.2246,-2.2192,-2.2191,-2.2189,-2.2188,-2.2167,-2.2168,-2.2169,0,0,0,0,0,0,0,0,0,0,0,0,0,-2.2255,-2.2262,-2.2268,-2.2238,-2.2235,-2.2247,-2.2247,-2.2246,-2.2192,-2.219,-2.2189,-2.2187,-2.2167,-2.2168,-2.2169,-2.2209,0,0,-2.2171,-2.2172,0,0,0,0,0,0,0,0,-2.2255,-2.2255,-2.2243,-2.224,-2.2237,-2.222,-2.2237,-2.2234,-2.2193,-2.2208,-2.2188,-2.2186,-2.2187,-2.2186,-2.2186,-2.2208,-2.2207,-2.2171,-2.2172,-2.2172,-2.2172,0,0,0,0,0,0,0,-2.2256,-2.2255,-2.226,-2.2242,-2.2239,-2.2225,-2.2222,-2.2236,-2.2208,-2.2207,-2.2203,-2.2201,-2.2185,-2.2185,-2.2185,-2.2207,-2.2171,-2.2172,-2.2172,-2.2173,-2.226,-2.2261,0,0,0,0,0,0,-2.226,-2.2256,-2.226,-2.2259,-2.2242,-2.2227,-2.2224,-2.2227,-2.2207,-2.2203,-2.2203,-2.2199,-2.2184,-2.2184,-2.2184,-2.2229,-2.2172,-2.2173,-2.2173,-2.2258,-2.226,-2.2262,0,0,0,0,0,0,-2.226,-2.2261,-2.2261,-2.2257,-2.2255,-2.2229,-2.2233,-2.2228,-2.2228,-2.2204,-2.2199,-2.2208,-2.2183,-2.2183,-2.2203,-2.2227,-2.2173,-2.2174,-2.2256,-2.2259,-2.2261,-2.232,0,0,0,0,0,0,-2.226,-2.2262,-2.2277,-2.2257,-2.2256,-2.2281,-2.2235,-2.2229,-2.2229,-2.2224,-2.2208,-2.2203,-2.2182,-2.2202,-2.2204,-2.2227,-2.2175,-2.2253,-2.2257,-2.226,-2.2316,-2.2324,-2.2332,0,0,0,0,0,-2.226,-2.2294,-2.2278,-2.2278,-2.2274,-2.2282,-2.2282,-2.2255,-2.2232,-2.2246,-2.2231,-2.2204,-2.2224,-2.2204,-2.2206,-2.223,-2.2252,-2.2256,-2.226,-2.2312,-2.2323,-2.2331,0,0,0,0,0,0,-2.2318,-2.2291,-2.2273,-2.2301,-2.2294,-2.2273,-2.2291,-2.2268,-2.2268,-2.2263,-2.223,-2.2227,-2.2252,-2.2243,-2.2221,-2.2268,-2.2234,-2.2238,-2.2273,-2.2282,-2.229,-2.2292,-2.2175,0,0,0,0,0,-2.2334,-2.2342,-2.2319,-2.2346,-2.2344,-2.2318,-2.2321,-2.2301,-2.2293,-2.229,-2.2276,-2.2269,-2.2273,-2.2277,-2.228,-2.2314,-2.2309,-2.2331,-2.2339,-2.2346,-2.2351,-2.2367,-2.2376,-2.2276,-2.2276,-2.2276,0,0,-2.2367,-2.2353,-2.2361,-2.2358,-2.235,-2.236,-2.2316,-2.2328,-2.2335,-2.2292,-2.231,-2.2299,-2.2289,-2.2316,-2.2327,-2.231,-2.2377,-2.2351,-2.2357,-2.2358,-2.2372,-2.2382,-2.239,-2.2278,-2.2278,-2.2277,0,0,-2.2432,-2.2423,-2.2445,-2.2438,-2.2427,-2.2409,-2.2414,-2.2396,-2.2388,-2.2405,-2.2372,-2.238,-2.2389,-2.2383,-2.2381,-2.2443,-2.2418,-2.2445,-2.2487,-2.2504,-2.2512,-2.2519,-2.2541,-2.2549,-2.245,-2.245,-2.245,0,-2.2475,-2.2488,-2.2459,-2.2473,-2.2472,-2.2433,-2.2454,-2.2449,-2.244,-2.244,-2.242,-2.243,-2.2421,-2.2445,-2.246,-2.246,-2.2465,-2.2447,-2.2513,-2.2519,-2.2525,-2.2546,-2.2554,-2.2453,-2.2453,-2.2452,-2.2452,0,-2.2541,-2.2551,-2.257,-2.2561,-2.2562,-2.258,-2.2554,-2.2558,-2.2538,-2.2523,-2.2541,-2.2528,-2.2528,-2.2532,-2.2513,-2.2554,-2.2543,-2.2519,-2.2484,-2.2539,-2.2558,-2.2565,-2.2458,-2.2457,-2.2456,-2.2455,0,0,-2.2643,-2.2617,-2.2625,-2.262,-2.2604,-2.2611,-2.2627,-2.2626,-2.263,-2.2625,-2.2637,-2.2645,-2.2622,-2.262,-2.26,-2.2615,-2.2664,-2.2588,-2.2587,-2.2603,-2.2708,-2.2727,-2.2736,-2.2647,-2.2649,-2.265,-2.2709,0,-2.2704,-2.273,-2.2704,-2.2734,-2.2743,-2.2704,-2.2718,-2.271,-2.2696,-2.2701,-2.2685,-2.2691,-2.266,-2.2659,-2.2671,-2.2656,-2.2685,-2.2651,-2.2659,-2.2659,-2.2662,-2.2746,-2.2766,-2.2822,-2.2716,-2.2717,-2.2718,0,-2.278,-2.2777,-2.2809,-2.279,-2.2793,-2.2805,-2.2802,-2.2807,-2.2797,-2.2785,-2.2783,-2.2758,-2.2772,-2.2738,-2.2757,-2.2734,-2.2736,-2.2728,-2.273,-2.273,-2.2692,-2.2748,-2.2839,-2.2848,-2.2729,-2.2728,-2.2728,0,-2.2851,-2.2855,-2.2874,-2.2871,-2.285,-2.286,-2.2852,-2.284,-2.2841,-2.2838,-2.2838,-2.2837,-2.2836,-2.2836,-2.2811,-2.2789,-2.2833,-2.2797,-2.2824,-2.2825,-2.2835,-2.2835,-2.2928,-2.2837,-2.2836,-2.2836,-2.2836,0,-2.2922,-2.2943,-2.2906,-2.2918,-2.294,-2.2909,-2.2931,-2.2919,-2.2909,-2.2917,-2.2884,-2.2893,-2.286,-2.2866,-2.2847,-2.2865,-2.2865,-2.2856,-2.2851,-2.2859,-2.286,-2.286,-2.2855,-2.2838,-2.2838,-2.2837,-2.2837,0,-2.3005,-2.2981,-2.3,-2.2978,-2.2973,-2.299,-2.2971,-2.2981,-2.2964,-2.2976,-2.2977,-2.2951,-2.2955,-2.2931,-2.2931,-2.2918,-2.2946,-2.2934,-2.2949,-2.2946,-2.2974,-2.2972,-2.307,-2.3082,-2.2983,-2.2984,-2.2984,0,-2.3053,-2.3067,-2.3047,-2.305,-2.3043,-2.3049,-2.305,-2.302,-2.3022,-2.3011,-2.3022,-2.3024,-2.3023,-2.3033,-2.3014,-2.3014,-2.3001,-2.3036,-2.3001,-2.3009,-2.3002,-2.3001,-2.3002,-2.3043,-2.3045,-2.3046,-2.3046,0,-2.3139,-2.3126,-2.3128,-2.3125,-2.3126,-2.3123,-2.3118,-2.3122,-2.309,-2.3094,-2.3098,-2.3098,-2.3097,-2.3099,-2.3095,-2.3087,-2.3061,-2.3057,-2.3064,-2.3072,-2.3081,-2.3076,-2.2969,-2.3055,-2.3054,-2.3054,-2.3053,-2.3053,-2.3205,-2.3217,-2.3204,-2.3206,-2.3199,-2.3194,-2.3203,-2.3186,-2.3189,-2.3186,-2.3169,-2.3176,-2.3164,-2.3156,-2.315,-2.3155,-2.3139,-2.3148,-2.315,-2.3153,-2.3158,-2.308,-2.3154,-2.3154,-2.3154,-2.3154,-2.3153,0,-2.329,-2.3279,-2.3282,-2.3275,-2.3277,-2.3253,-2.3245,-2.3249,-2.3255,-2.3247,-2.3247,-2.3251,-2.3253,-2.3234,-2.3233,-2.3241,-2.3229,-2.3242,-2.3241,-2.3239,-2.3173,-2.3167,-2.3251,-2.3251,-2.3251,-2.3251,-2.3251,-2.3251,-2.3334,-2.3351,-2.3337,-2.335,-2.334,-2.3346,-2.3344,-2.3339,-2.3332,-2.3338,-2.3339,-2.3327,-2.3314,-2.3312,-2.3312,-2.3306,-2.3308,-2.3324,-2.3315,-2.3253,-2.3244,-2.3235,-2.323,-2.3325,-2.3325,-2.338,-2.3381,-2.3381]}]]